| time (UTC) | temp F | wind direction | speed knots | gust knots | rain 1hr in | rain 24hr in | rain mn in | humidity % | barometer mb |
| 20260505173012 | 73 | 121 | 10.4 | 14.8 | 0.00 | 0.00 | 0.00 | 51 | 1003.7 |
| 20260505171512 | 74 | 138 | 7.8 | 17.4 | 0.00 | 0.00 | 0.00 | 50 | 1004.2 |
| 20260505170007 | 72 | 117 | 10.4 | 20.9 | 0.00 | 0.00 | 0.00 | 52 | 1004.5 |
| 20260505164508 | 71 | 124 | 10.4 | 17.4 | 0.00 | 0.00 | 0.00 | 53 | 1004.7 |
| 20260505163008 | 69 | 128 | 11.3 | 20.9 | 0.00 | 0.00 | 0.00 | 56 | 1004.9 |
| 20260505161508 | 68 | 142 | 12.2 | 20.0 | 0.00 | 0.00 | 0.00 | 57 | 1005.1 |
| 20260505153010 | 68 | 107 | 10.4 | 19.1 | 0.00 | 0.00 | 0.00 | 56 | 1005.6 |
| 20260505151513 | 69 | 120 | 8.7 | 13.9 | 0.00 | 0.00 | 0.00 | 54 | 1006.0 |
| 20260505124536 | 59 | 111 | 3.5 | 7.0 | 0.00 | 0.00 | 0.00 | 65 | 1007.6 |
| 20260505123026 | 58 | 99 | 1.7 | 3.5 | 0.00 | 0.00 | 0.00 | 68 | 1007.5 |
| 20260505121528 | 56 | 48 | 0.9 | 2.6 | 0.00 | 0.00 | 0.00 | 69 | 1007.3 |
| 20260505120032 | 55 | 48 | 0.9 | 2.6 | 0.00 | 0.00 | 0.00 | 72 | 1007.4 |
| 20260505114527 | 51 | 48 | 0.0 | 1.7 | 0.00 | 0.00 | 0.00 | 80 | 1007.6 |
| 20260505113028 | 48 | 48 | 0.9 | 2.6 | 0.00 | 0.00 | 0.00 | 85 | 1007.7 |
| 20260505111508 | 45 | 30 | 0.9 | 2.6 | 0.00 | 0.00 | 0.00 | 88 | 1007.7 |
| 20260505101515 | 43 | 360 | 0.0 | 2.6 | 0.00 | 0.00 | 0.00 | 88 | 1007.6 |
| 20260505100010 | 43 | 360 | 0.0 | 1.7 | 0.00 | 0.00 | 0.00 | 89 | 1007.6 |
| 20260505094506 | 43 | 360 | 0.0 | 0.9 | 0.00 | 0.00 | 0.00 | 88 | 1007.7 |
| 20260505093021 | 43 | 360 | 0.0 | 1.7 | 0.00 | 0.00 | 0.00 | 88 | 1007.4 |
| 20260505091507 | 44 | 360 | 0.0 | 1.7 | 0.00 | 0.00 | 0.00 | 87 | 1007.5 |
| 20260505090007 | 44 | 360 | 1.7 | 3.5 | 0.00 | 0.00 | 0.00 | 87 | 1007.6 |
| 20260505084508 | 44 | 360 | 0.9 | 2.6 | 0.00 | 0.00 | 0.00 | 86 | 1007.7 |
| 20260505083008 | 44 | 360 | 0.0 | 4.3 | 0.00 | 0.00 | 0.00 | 86 | 1007.7 |
| 20260505081528 | 45 | 360 | 0.0 | 2.6 | 0.00 | 0.00 | 0.00 | 86 | 1007.9 |
| 20260505080027 | 43 | 360 | 0.9 | 3.5 | 0.00 | 0.00 | 0.00 | 88 | 1007.9 |
| 20260505074527 | 44 | 360 | 0.9 | 2.6 | 0.00 | 0.00 | 0.00 | 87 | 1007.9 |
| 20260505073025 | 44 | 360 | 0.0 | 4.3 | 0.00 | 0.00 | 0.00 | 88 | 1007.8 |
| 20260505071526 | 43 | 360 | 0.0 | 4.3 | 0.00 | 0.00 | 0.00 | 87 | 1007.8 |
| 20260505070034 | 44 | 360 | 1.7 | 4.3 | 0.00 | 0.00 | 0.00 | 86 | 1007.9 |
| 20260505064525 | 44 | 360 | 0.9 | 2.6 | 0.00 | 0.00 | 0.00 | 86 | 1008.0 |
| 20260505063028 | 43 | 360 | 0.0 | 3.5 | 0.00 | 0.00 | 0.00 | 87 | 1008.1 |
| 20260505061534 | 43 | 360 | 0.0 | 3.5 | 0.00 | 0.00 | 0.00 | 87 | 1008.0 |
| 20260505060028 | 43 | 360 | 0.9 | 2.6 | 0.00 | 0.00 | 0.00 | 87 | 1007.9 |
| 20260505054526 | 43 | 360 | 0.9 | 3.5 | 0.00 | 0.00 | 0.00 | 87 | 1008.0 |
| 20260505053035 | 44 | 360 | 0.0 | 2.6 | 0.00 | 0.00 | 0.00 | 87 | 1007.8 |
| 20260505051546 | 44 | 360 | 0.9 | 1.7 | 0.00 | 0.00 | 0.00 | 85 | 1007.7 |
| 20260505041532 | 46 | 360 | 0.0 | 1.7 | 0.00 | 0.00 | 0.00 | 84 | 1007.5 |
| 20260505040027 | 47 | 360 | 0.0 | 1.7 | 0.00 | 0.00 | 0.00 | 78 | 1007.3 |
| 20260505034530 | 48 | 360 | 0.0 | 1.7 | 0.00 | 0.00 | 0.00 | 78 | 1007.2 |
| 20260505033029 | 48 | 360 | 0.0 | 1.7 | 0.00 | 0.00 | 0.00 | 78 | 1006.9 |
| 20260505031529 | 49 | 360 | 0.0 | 2.6 | 0.00 | 0.00 | 0.00 | 77 | 1006.9 |
| 20260505030030 | 49 | 360 | 0.0 | 1.7 | 0.00 | 0.00 | 0.00 | 75 | 1006.8 |
| 20260505024527 | 50 | 360 | 0.0 | 1.7 | 0.00 | 0.00 | 0.00 | 75 | 1006.9 |
| 20260505023028 | 51 | 360 | 0.9 | 3.5 | 0.00 | 0.00 | 0.00 | 73 | 1007.1 |
| 20260505021505 | 52 | 360 | 0.9 | 2.6 | 0.00 | 0.00 | 0.00 | 72 | 1007.1 |
| 20260505020008 | 53 | 360 | 0.0 | 2.6 | 0.00 | 0.00 | 0.00 | 66 | 1007.1 |
| 20260505014504 | 54 | 360 | 0.9 | 1.7 | 0.00 | 0.00 | 0.00 | 65 | 1006.9 |
| 20260505013004 | 54 | 360 | 0.9 | 2.6 | 0.00 | 0.00 | 0.00 | 66 | 1006.6 |
| 20260505011504 | 55 | 5 | 0.0 | 2.6 | 0.00 | 0.00 | 0.00 | 62 | 1006.5 |
| 20260505010005 | 56 | 5 | 1.7 | 2.6 | 0.00 | 0.00 | 0.00 | 64 | 1006.2 |
| 20260505004508 | 57 | 360 | 0.0 | 1.7 | 0.00 | 0.00 | 0.00 | 58 | 1006.0 |
| 20260505003017 | 59 | 228 | 0.0 | 1.7 | 0.00 | 0.00 | 0.00 | 55 | 1005.7 |
| 20260505001506 | 60 | 228 | 0.0 | 2.6 | 0.00 | 0.00 | 0.00 | 52 | 1005.5 |
| 20260505000006 | 63 | 224 | 0.0 | 0.9 | 0.00 | 0.00 | 0.00 | 48 | 1005.3 |
| 20260504234506 | 64 | 224 | 0.9 | 1.7 | 0.00 | 0.00 | 0.00 | 45 | 1005.0 |
| 20260504233007 | 65 | 225 | 0.0 | 1.7 | 0.00 | 0.00 | 0.00 | 45 | 1004.8 |
| 20260504231506 | 65 | 225 | 0.9 | 3.5 | 0.00 | 0.00 | 0.00 | 43 | 1004.8 |
| 20260504230004 | 66 | 244 | 1.7 | 8.7 | 0.00 | 0.00 | 0.00 | 42 | 1004.7 |
| 20260504224507 | 66 | 228 | 1.7 | 7.0 | 0.00 | 0.00 | 0.00 | 43 | 1004.6 |
| 20260504223005 | 66 | 234 | 2.6 | 7.0 | 0.00 | 0.00 | 0.00 | 41 | 1004.3 |
| 20260504221510 | 66 | 159 | 2.6 | 8.7 | 0.00 | 0.00 | 0.00 | 43 | 1004.4 |
| 20260504220006 | 66 | 277 | 4.3 | 11.3 | 0.00 | 0.00 | 0.00 | 42 | 1004.4 |
| 20260504214507 | 65 | 193 | 2.6 | 5.2 | 0.00 | 0.00 | 0.00 | 44 | 1004.6 |
| 20260504213008 | 65 | 149 | 2.6 | 5.2 | 0.00 | 0.00 | 0.00 | 47 | 1004.5 |
| 20260504211509 | 65 | 128 | 2.6 | 7.0 | 0.00 | 0.00 | 0.00 | 47 | 1004.5 |
| 20260504210007 | 65 | 228 | 2.6 | 10.4 | 0.00 | 0.00 | 0.00 | 46 | 1004.6 |
| 20260504204510 | 64 | 169 | 1.7 | 7.8 | 0.00 | 0.00 | 0.00 | 48 | 1004.6 |
| 20260504203019 | 62 | 156 | 0.9 | 5.2 | 0.00 | 0.00 | 0.00 | 52 | 1004.6 |
| 20260504201510 | 62 | 165 | 2.6 | 7.8 | 0.00 | 0.00 | 0.00 | 54 | 1004.7 |
| 20260504200011 | 62 | 161 | 1.7 | 5.2 | 0.00 | 0.00 | 0.00 | 53 | 1004.8 |
| 20260504194514 | 63 | 283 | 4.3 | 13.9 | 0.00 | 0.00 | 0.00 | 52 | 1004.9 |
| 20260504193017 | 61 | 307 | 2.6 | 5.2 | 0.00 | 0.00 | 0.00 | 55 | 1005.2 |
| 20260504191522 | 59 | 165 | 1.7 | 5.2 | 0.00 | 0.00 | 0.00 | 59 | 1005.3 |
| 20260504190011 | 58 | 159 | 2.6 | 6.1 | 0.00 | 0.00 | 0.00 | 59 | 1005.4 |
| 20260504184514 | 57 | 168 | 2.6 | 7.0 | 0.00 | 0.00 | 0.00 | 61 | 1005.6 |
| 20260504183011 | 57 | 159 | 3.5 | 6.1 | 0.00 | 0.00 | 0.00 | 62 | 1005.7 |
| 20260504181514 | 57 | 155 | 3.5 | 6.1 | 0.00 | 0.00 | 0.00 | 63 | 1005.8 |
| 20260504180013 | 56 | 167 | 2.6 | 5.2 | 0.00 | 0.00 | 0.00 | 65 | 1006.0 |
| 20260504174512 | 56 | 269 | 4.3 | 7.8 | 0.00 | 0.00 | 0.00 | 63 | 1006.2 |